Weather History for Cumberland, MD

Change the Weather History Date:

Friday, July 5, 2013

  Actual Average (KMRB) Record (KMRB)
Temperature  
Mean Temperature 78 °F 75 °F  
Max Temperature 89 °F 86 °F 103 °F (1999)
Min Temperature 68 °F 63 °F 48 °F (1971)
Degree Days  
Heating Degree Days 0 0  
Month to date heating degree days 0  
Since 1 June heating degree days 24  
Since 1 July heating degree days 0  
Cooling Degree Days 14 10  
Month to date cooling degree days 46  
Year to date cooling degree days 286  
Since 1 June cooling degree days 229  
Growing Degree Days 28 (Base 50)    
Moisture  
Dew Point 69 °F    
Average Humidity 80    
Maximum Humidity 100    
Minimum Humidity 43    
Precipitation  
Precipitation 0.00 in 0.11 in 1.22 in (2006)
Month to date precipitation 0.56  
Year to date precipitation 20.05  
Sea Level Pressure  
Sea Level Pressure 30.22 in    
Wind  
Wind Speed 2 mph (NNW)    
Max Wind Speed 9 mph    
Max Gust Speed -    
Visibility 8 miles    
Events      
T = Trace of Precipitation, MM = Missing Value Source: NWS Daily Summary

Daily Weather History Graph

Daily Weather History Graph

Search for Another Location

Airport:

Trip Planner

Search our weather history database for the weather conditions in past years. The results will help you decide how hot, cold, wet, or windy it might be!

Date:

Astronomy

Jul. 05, 2013 Rise Set
Actual Time 5:53 AM EDT 8:45 PM EDT
Civil Twilight 5:21 AM EDT 9:17 PM EDT
Nautical Twilight 4:40 AM EDT 9:58 PM EDT
Astronomical Twilight 3:53 AM EDT 10:45 PM EDT
Moon 3:51 AM EDT (7/5) 6:39 PM EDT (7/5)
Length of Visible Light 15h 56m
Length of Day
14h 52m
Waning Crescent, 6% of the Moon is Illuminated
Jul 5
Waning Crescent
Jul 8
New
Jul 15
First Quarter
Jul 22
Full
Jul 29
Last Quarter

Hourly Weather History & Observations

Time (EDT) Temp. Heat Index Dew Point Humidity Pressure Visibility Wind Dir Wind Speed Gust Speed Precip Events Conditions
12:17 AM 73.4 °F - 69.8 °F 88% 30.24 in 7.0 mi Calm Calm - N/A   Clear
12:37 AM 71.6 °F - 69.8 °F 94% 30.25 in 7.0 mi NW 3.5 mph - N/A   Clear
12:57 AM 71.6 °F - 69.8 °F 94% 30.25 in 7.0 mi Calm Calm - N/A   Clear
1:17 AM 71.6 °F - 69.8 °F 94% 30.25 in 7.0 mi NW 3.5 mph - N/A   Clear
1:37 AM 71.6 °F - 68.0 °F 88% 30.25 in 7.0 mi Calm Calm - N/A   Clear
1:57 AM 69.8 °F - 68.0 °F 94% 30.25 in 4.0 mi Calm Calm - N/A   Clear
2:17 AM 69.8 °F - 68.0 °F 94% 30.25 in 7.0 mi Calm Calm - N/A   Clear
2:37 AM 69.8 °F - 68.0 °F 94% 30.24 in 7.0 mi Calm Calm - N/A   Clear
2:57 AM 69.8 °F - 68.0 °F 94% 30.24 in 5.0 mi Calm Calm - N/A   Clear
3:17 AM 69.8 °F - 68.0 °F 94% 30.24 in 3.0 mi Calm Calm - N/A   Unknown
3:37 AM 69.8 °F - 68.0 °F 94% 30.24 in 4.0 mi Calm Calm - N/A   Clear
3:57 AM 69.8 °F - 68.0 °F 94% 30.24 in 5.0 mi Calm Calm - N/A   Scattered Clouds
4:17 AM 68.0 °F - 68.0 °F 100% 30.24 in 5.0 mi Calm Calm - N/A   Clear
4:37 AM 68.0 °F - 68.0 °F 100% 30.24 in 7.0 mi Calm Calm - N/A   Clear
4:57 AM 68.0 °F - 68.0 °F 100% 30.23 in 5.0 mi Calm Calm - N/A   Clear
5:17 AM 68.0 °F - 68.0 °F 100% 30.24 in 5.0 mi Calm Calm - N/A   Clear
5:37 AM 68.0 °F - 66.2 °F 94% 30.23 in 2.5 mi Calm Calm - N/A   Unknown
5:57 AM 68.0 °F - 66.2 °F 94% 30.24 in 3.0 mi Calm Calm - N/A   Unknown
6:17 AM 68.0 °F - 66.2 °F 94% 30.24 in 5.0 mi Calm Calm - N/A   Clear
6:37 AM 68.0 °F - 68.0 °F 100% 30.24 in 5.0 mi Calm Calm - N/A   Clear
6:58 AM 69.8 °F - 68.0 °F 94% 30.25 in 7.0 mi Calm Calm - N/A   Clear
7:18 AM 69.8 °F - 68.0 °F 94% 30.25 in 10.0 mi Calm Calm - N/A   Clear
8:18 AM 73.4 °F - 68.0 °F 83% 30.25 in 10.0 mi Calm Calm - N/A   Clear
8:38 AM 75.2 °F - 68.0 °F 78% 30.25 in 10.0 mi Calm Calm - N/A   Clear
8:58 AM 77.0 °F - 69.8 °F 78% 30.26 in 10.0 mi Calm Calm - N/A   Clear
9:18 AM 78.8 °F - 68.0 °F 69% 30.26 in 10.0 mi SE 3.5 mph - N/A   Clear
9:38 AM 78.8 °F - 68.0 °F 69% 30.25 in 10.0 mi Calm Calm - N/A   Clear
9:58 AM 80.6 °F 83.2 °F 68.0 °F 65% 30.25 in 10.0 mi Calm Calm - N/A   Clear
10:18 AM 80.6 °F 83.2 °F 68.0 °F 65% 30.25 in 10.0 mi SSW 3.5 mph - N/A   Clear
10:38 AM 82.4 °F 85.4 °F 68.0 °F 62% 30.25 in 10.0 mi SSW 6.9 mph - N/A   Clear
10:58 AM 82.4 °F 85.4 °F 68.0 °F 62% 30.24 in 10.0 mi SSE 6.9 mph - N/A   Clear
11:18 AM 86.0 °F 89.4 °F 68.0 °F 55% 30.24 in 10.0 mi SSW 9.2 mph - N/A   Clear
11:38 AM 86.0 °F 88.2 °F 66.2 °F 51% 30.24 in 10.0 mi SE 4.6 mph - N/A   Clear
11:58 AM 86.0 °F 88.2 °F 66.2 °F 51% 30.24 in 10.0 mi South 5.8 mph - N/A   Clear
12:18 PM 86.0 °F 89.4 °F 68.0 °F 55% 30.23 in 10.0 mi SSW 8.1 mph - N/A   Clear
12:38 PM 87.8 °F 91.4 °F 68.0 °F 52% 30.23 in 10.0 mi SSW 5.8 mph - N/A   Clear
12:58 PM 87.8 °F 89.4 °F 64.4 °F 46% 30.22 in 10.0 mi SSW 3.5 mph - N/A   Clear
1:18 PM 87.8 °F 90.4 °F 66.2 °F 49% 30.22 in 10.0 mi South 6.9 mph - N/A   Scattered Clouds
1:38 PM 89.6 °F 91.1 °F 64.4 °F 43% 30.21 in 10.0 mi SSW 8.1 mph - N/A   Scattered Clouds
1:58 PM 86.0 °F 87.3 °F 64.4 °F 48% 30.20 in 10.0 mi South 5.8 mph - N/A   Scattered Clouds
2:18 PM 84.2 °F 87.3 °F 68.0 °F 58% 30.20 in 10.0 mi Calm Calm - N/A   Mostly Cloudy
2:38 PM 86.0 °F 88.2 °F 66.2 °F 51% 30.19 in 10.0 mi North 4.6 mph - N/A   Scattered Clouds
3:19 PM 80.6 °F 83.2 °F 68.0 °F 65% 30.19 in 10.0 mi NW 4.6 mph - N/A   Scattered Clouds
3:39 PM 78.8 °F - 71.6 °F 78% 30.20 in 7.0 mi NNW 5.8 mph - N/A   Mostly Cloudy
3:59 PM 78.8 °F - 69.8 °F 74% 30.19 in 10.0 mi North 4.6 mph - N/A   Scattered Clouds
4:19 PM 82.4 °F 87.2 °F 71.6 °F 70% 30.18 in 10.0 mi NNE 9.2 mph - N/A   Clear
4:39 PM 80.6 °F 84.6 °F 71.6 °F 74% 30.17 in 10.0 mi NE 8.1 mph - N/A   Scattered Clouds
6:39 PM 80.6 °F 84.6 °F 71.6 °F 74% 30.16 in 10.0 mi Calm Calm - N/A   Clear
6:59 PM 80.6 °F 84.6 °F 71.6 °F 74% 30.15 in 10.0 mi North 3.5 mph - N/A   Clear
7:19 PM 78.8 °F - 69.8 °F 74% 30.16 in 10.0 mi Calm Calm - N/A   Scattered Clouds
7:39 PM 77.0 °F - 71.6 °F 83% 30.17 in 10.0 mi North 4.6 mph - N/A   Scattered Clouds
7:59 PM 77.0 °F - 71.6 °F 83% 30.18 in 10.0 mi Calm Calm - N/A   Mostly Cloudy
8:19 PM 77.0 °F - 71.6 °F 83% 30.18 in 10.0 mi NE 3.5 mph - N/A   Scattered Clouds
8:39 PM 77.0 °F - 71.6 °F 83% 30.19 in 10.0 mi WNW 3.5 mph - N/A   Mostly Cloudy
8:59 PM 75.2 °F - 71.6 °F 89% 30.19 in 10.0 mi ENE 6.9 mph - N/A   Mostly Cloudy
9:19 PM 73.4 °F - 71.6 °F 94% 30.20 in 10.0 mi NE 4.6 mph - N/A   Scattered Clouds
9:39 PM 73.4 °F - 71.6 °F 94% 30.20 in 10.0 mi Calm Calm - N/A   Mostly Cloudy
9:59 PM 73.4 °F - 73.4 °F 100% 30.20 in 10.0 mi Calm Calm - N/A   Scattered Clouds
10:19 PM 73.4 °F - 71.6 °F 94% 30.22 in 10.0 mi Calm Calm - N/A   Clear
10:39 PM 73.4 °F - 71.6 °F 94% 30.22 in 10.0 mi Calm Calm - N/A   Scattered Clouds
10:59 PM 73.4 °F - 71.6 °F 94% 30.21 in 7.0 mi Calm Calm - N/A   Clear
11:19 PM 71.6 °F - 71.6 °F 100% 30.21 in 5.0 mi NNE 3.5 mph - N/A   Clear
11:39 PM 71.6 °F - 71.6 °F 100% 30.21 in 7.0 mi Calm Calm - N/A   Clear
11:59 PM 71.6 °F - 71.6 °F 100% 30.22 in 7.0 mi Calm Calm - N/A   Scattered Clouds